Location: Bathurst
(33.4193°S, 149.5775°E)
Time: 08:39:04
(UTC+10:00)

Vanguard 1 Rocket - Pass Details

Date: 23 June 2021
Orbit: 650 x 4226 km, 34.3° (Epoch: 02 August)

Event Time Altitude Azimuth Distance (km) Brightness Sun altitude
Rises 12:40:35 0° 257° (WSW) 6,699 11.8 32.5°
Reaches altitude 10° 12:45:51 10° 258° (WSW) 5,099 11.3 32.3°
Maximum altitude 12:58:34 74° 339° (NNW) 1,459 9.3 31.7°
Drops below altitude 10° 13:05:01 10° 64° (ENE) 2,716 10.0 31.3°
Sets 13:07:01 0° 66° (ENE) 3,446 10.5 31.2°
